• In Germany
  • List of Countries
  • For 7 days
  • Water Temperature
  • Satellite Maps
  • Weather Map
  • Weather Widgets
  • user-avatar
    Login

    Hourly Weather Prenzlau

    Today, 18 August, Saturday

    Time Temperature Precipitation Wind Pressure Humidity
    00:00 +18°C° 0.2 mm 2 mps 761 mmHg 93%
    01:00 +17°C° 0.2 mm 2 mps 762 mmHg 94%
    02:00 +17°C° 0 mm 2 mps 762 mmHg 94%
    03:00 +17°C° 0 mm 2 mps 762 mmHg 94%
    04:00 +16°C° 0 mm 2 mps 762 mmHg 94%
    05:00 +17°C° 0 mm 2 mps 762 mmHg 90%
    06:00 +17°C° 0 mm 2 mps 762 mmHg 86%
    07:00 +18°C° 0 mm 2 mps 763 mmHg 82%
    08:00 +19°C° 0 mm 2 mps 763 mmHg 73%
    09:00 +21°C° 0 mm 2 mps 763 mmHg 63%
    10:00 +23°C° 0 mm 2 mps 764 mmHg 54%
    11:00 +24°C° 0 mm 2 mps 763 mmHg 49%
    12:00 +25°C° 0 mm 2 mps 763 mmHg 44%
    13:00 +26°C° 0 mm 2 mps 763 mmHg 38%
    14:00 +26°C° 0 mm 2 mps 763 mmHg 37%
    15:00 +27°C° 0 mm 2 mps 762 mmHg 36%
    16:00 +27°C° 0 mm 2 mps 762 mmHg 35%
    17:00 +26°C° 0 mm 2 mps 762 mmHg 40%
    18:00 +24°C° 0 mm 2 mps 762 mmHg 45%
    19:00 +23°C° 0 mm 1 mps 762 mmHg 49%
    20:00 +22°C° 0 mm 1 mps 762 mmHg 50%
    21:00 +21°C° 0 mm 1 mps 763 mmHg 51%
    22:00 +20°C° 0 mm 1 mps 763 mmHg 52%
    23:00 +20°C° 0 mm 1 mps 763 mmHg 55%

    Tomorrow, 19 August, Sunday

    Time Temperature Precipitation Wind Pressure Humidity
    00:00 +19°C° 0 mm 1 mps 763 mmHg 58%
    01:00 +18°C° 0 mm 2 mps 763 mmHg 60%
    02:00 +17°C° 0 mm 2 mps 763 mmHg 64%
    03:00 +17°C° 0 mm 2 mps 763 mmHg 68%
    04:00 +17°C° 0 mm 2 mps 763 mmHg 72%
    05:00 +18°C° 0 mm 2 mps 763 mmHg 71%
    06:00 +19°C° 0 mm 2 mps 763 mmHg 70%
    07:00 +20°C° 0 mm 2 mps 764 mmHg 70%
    08:00 +21°C° 0 mm 2 mps 764 mmHg 65%
    09:00 +24°C° 0 mm 3 mps 764 mmHg 60%
    10:00 +25°C° 0 mm 3 mps 764 mmHg 55%
    11:00 +26°C° 0 mm 3 mps 763 mmHg 53%
    12:00 +27°C° 0 mm 3 mps 763 mmHg 51%
    13:00 +27°C° 0 mm 3 mps 763 mmHg 49%
    14:00 +27°C° 0 mm 3 mps 762 mmHg 49%
    15:00 +28°C° 0 mm 3 mps 762 mmHg 49%
    16:00 +28°C° 0 mm 3 mps 762 mmHg 48%
    17:00 +27°C° 0 mm 2 mps 762 mmHg 53%
    18:00 +25°C° 0 mm 1 mps 761 mmHg 57%
    19:00 +24°C° 0 mm 1 mps 761 mmHg 61%
    20:00 +24°C° 0 mm 1 mps 761 mmHg 63%
    21:00 +23°C° 0 mm 1 mps 761 mmHg 65%
    22:00 +22°C° 0 mm 1 mps 762 mmHg 68%
    23:00 +22°C° 0 mm 1 mps 761 mmHg 69%

    Day after tomorrow, 20 August, Monday

    Time Temperature Precipitation Wind Pressure Humidity
    00:00 +21°C° 0 mm 1 mps 761 mmHg 71%
    01:00 +20°C° 0 mm 2 mps 761 mmHg 73%
    02:00 +20°C° 0 mm 2 mps 761 mmHg 73%
    03:00 +19°C° 0 mm 2 mps 760 mmHg 74%
    04:00 +19°C° 0 mm 2 mps 760 mmHg 75%
    05:00 +20°C° 0 mm 2 mps 760 mmHg 73%
    06:00 +20°C° 0 mm 2 mps 760 mmHg 72%
    07:00 +21°C° 0 mm 2 mps 760 mmHg 70%
    08:00 +23°C° 0 mm 2 mps 760 mmHg 65%
    09:00 +25°C° 0 mm 3 mps 760 mmHg 60%
    10:00 +26°C° 0 mm 3 mps 760 mmHg 54%
    11:00 +26°C° 0 mm 3 mps 760 mmHg 54%
    12:00 +27°C° 0 mm 4 mps 759 mmHg 55%
    13:00 +27°C° 0 mm 4 mps 759 mmHg 55%
    14:00 +27°C° 0.1 mm 4 mps 759 mmHg 56%
    15:00 +26°C° 0.1 mm 4 mps 759 mmHg 58%
    16:00 +26°C° 0.1 mm 4 mps 758 mmHg 59%
    17:00 +25°C° 0.2 mm 3 mps 759 mmHg 67%
    18:00 +22°C° 0.2 mm 3 mps 759 mmHg 75%
    19:00 +21°C° 0.2 mm 2 mps 759 mmHg 84%
    20:00 +20°C° 0 mm 2 mps 759 mmHg 87%
    21:00 +19°C° 0 mm 2 mps 759 mmHg 90%
    22:00 +19°C° 0 mm 2 mps 759 mmHg 93%
    23:00 +18°C° 0 mm 2 mps 760 mmHg 94%

    21 August, Tuesday

    Time Temperature Precipitation Wind Pressure Humidity
    00:00 +18°C° 0 mm 2 mps 760 mmHg 94%
    01:00 +17°C° 0 mm 2 mps 760 mmHg 95%
    02:00 +17°C° 0 mm 2 mps 760 mmHg 95%
    03:00 +16°C° 0 mm 2 mps 760 mmHg 94%
    04:00 +16°C° 0 mm 2 mps 761 mmHg 94%
    05:00 +17°C° 0 mm 2 mps 761 mmHg 90%
    06:00 +17°C° 0 mm 3 mps 761 mmHg 86%
    07:00 +18°C° 0 mm 3 mps 762 mmHg 81%
    08:00 +19°C° 0 mm 3 mps 762 mmHg 74%
    09:00 +21°C° 0 mm 3 mps 762 mmHg 66%
    10:00 +22°C° 0 mm 3 mps 762 mmHg 58%
    11:00 +24°C° 0 mm 3 mps 762 mmHg 56%
    12:00 +25°C° 0 mm 3 mps 762 mmHg 54%
    13:00 +26°C° 0 mm 3 mps 762 mmHg 51%
    14:00 +26°C° 0 mm 2 mps 762 mmHg 53%
    15:00 +26°C° 0 mm 2 mps 762 mmHg 54%
    16:00 +26°C° 0 mm 2 mps 762 mmHg 55%
    17:00 +25°C° 0 mm 2 mps 762 mmHg 60%
    18:00 +24°C° 0 mm 1 mps 762 mmHg 65%
    19:00 +23°C° 0 mm 1 mps 762 mmHg 70%
    20:00 +22°C° 0 mm 1 mps 762 mmHg 73%
    21:00 +21°C° 0 mm 1 mps 762 mmHg 76%
    22:00 +20°C° 0 mm 1 mps 762 mmHg 79%
    23:00 +20°C° 0 mm 1 mps 762 mmHg 78%

    22 August, Wednesday

    Time Temperature Precipitation Wind Pressure Humidity
    00:00 +19°C° 0 mm 2 mps 762 mmHg 78%
    01:00 +19°C° 0 mm 2 mps 762 mmHg 77%
    02:00 +19°C° 0 mm 2 mps 762 mmHg 78%
    03:00 +19°C° 0 mm 2 mps 761 mmHg 78%
    04:00 +19°C° 0 mm 3 mps 761 mmHg 79%
    05:00 +20°C° 0 mm 3 mps 761 mmHg 78%
    06:00 +20°C° 0 mm 3 mps 761 mmHg 77%
    07:00 +21°C° 0 mm 3 mps 762 mmHg 76%
    08:00 +22°C° 0 mm 3 mps 762 mmHg 72%
    09:00 +24°C° 0 mm 3 mps 762 mmHg 67%
    10:00 +26°C° 0 mm 3 mps 762 mmHg 62%
    11:00 +26°C° 0 mm 3 mps 762 mmHg 58%
    12:00 +27°C° 0 mm 3 mps 761 mmHg 53%
    13:00 +28°C° 0 mm 3 mps 761 mmHg 48%
    14:00 +28°C° 0 mm 3 mps 761 mmHg 47%
    15:00 +28°C° 0 mm 3 mps 761 mmHg 46%
    16:00 +29°C° 0 mm 3 mps 761 mmHg 45%
    17:00 +27°C° 0 mm 2 mps 761 mmHg 51%
    18:00 +26°C° 0 mm 2 mps 761 mmHg 57%
    19:00 +24°C° 0 mm 1 mps 761 mmHg 63%
    20:00 +23°C° 0 mm 1 mps 761 mmHg 67%
    21:00 +22°C° 0 mm 1 mps 761 mmHg 72%
    22:00 +21°C° 0 mm 1 mps 761 mmHg 76%
    23:00 +21°C° 0 mm 1 mps 761 mmHg 78%

    23 August, Thursday

    Time Temperature Precipitation Wind Pressure Humidity
    00:00 +20°C° 0 mm 1 mps 761 mmHg 80%
    01:00 +20°C° 0 mm 1 mps 761 mmHg 83%
    02:00 +19°C° 0 mm 1 mps 761 mmHg 84%
    03:00 +19°C° 0 mm 1 mps 761 mmHg 85%
    04:00 +19°C° 0 mm 1 mps 761 mmHg 86%
    05:00 +20°C° 0 mm 1 mps 761 mmHg 82%
    06:00 +21°C° 0 mm 1 mps 761 mmHg 78%
    07:00 +22°C° 0 mm 1 mps 761 mmHg 74%
    08:00 +24°C° 0 mm 1 mps 761 mmHg 67%
    09:00 +26°C° 0 mm 2 mps 761 mmHg 60%
    10:00 +28°C° 0 mm 2 mps 761 mmHg 52%
    11:00 +28°C° 0 mm 2 mps 760 mmHg 49%
    12:00 +29°C° 0 mm 2 mps 760 mmHg 45%
    13:00 +30°C° 0 mm 2 mps 759 mmHg 41%
    14:00 +31°C° 0 mm 2 mps 759 mmHg 40%
    15:00 +31°C° 0 mm 2 mps 758 mmHg 40%
    16:00 +31°C° 0 mm 2 mps 758 mmHg 39%
    17:00 +29°C° 0 mm 2 mps 757 mmHg 43%
    18:00 +28°C° 0 mm 2 mps 757 mmHg 47%
    19:00 +27°C° 0 mm 2 mps 756 mmHg 51%
    20:00 +26°C° 0 mm 2 mps 756 mmHg 51%
    21:00 +26°C° 0 mm 2 mps 756 mmHg 52%
    22:00 +25°C° 0 mm 3 mps 756 mmHg 53%
    23:00 +25°C° 0 mm 3 mps 755 mmHg 54%
    Show more